Location: Oteiza
(42.6167°N, 1.9500°W)
Time: 21:56:57
(UTC+02:00)

Amateur Radio Satellites - All Passes

Search period start: 19 October 2017 21:26
Search period end: 20 October 2017 21:26
Location: Oteiza, 42.6167°N, 1.9500°W

Satellite Date Start Highest point End Downlink Frequencies (MHz)
Time Altitude Azimuth
BEESAT 3 19 Oct 21:36:59 21:40:05 21° 44° (NE) 21:43:07 437.485
YUBILEINY 19 Oct 21:37:02 21:45:32 50° 75° (ENE) 21:54:00 435.215
AAUSAT CUBESAT 2 19 Oct 21:38:33 21:42:32 52° 260° (W) 21:46:34 437.432
DELFI C3 19 Oct 21:43:49 21:45:43 13° 64° (ENE) 21:47:38 145.870
AO-73 19 Oct 21:49:10 21:53:44 76° 259° (WSW) 21:58:19 145.935
CUBEBUG 2 19 Oct 21:51:24 21:55:03 22° 267° (W) 21:58:46 437.445
XW-2A 19 Oct 21:59:03 22:01:19 17° 266° (W) 22:03:36 145.665 - 145.685
AO-85 19 Oct 22:02:26 22:04:46 14° 38° (NE) 22:07:11 145.980
ZACube-1 19 Oct 22:10:55 22:15:12 40° 262° (W) 22:19:33 437.345
HO-68 19 Oct 22:12:33 22:16:56 17° 271° (W) 22:21:21 435.675
O/OREOS (USA 219) 19 Oct 22:33:03 22:37:36 89° 137° (SE) 22:42:13 437.305
UWE-3 19 Oct 22:33:03 22:35:38 15° 270° (W) 22:38:15 435.000/436.395/437.385
STRAND 1 19 Oct 22:34:08 22:38:48 36° 292° (WNW) 22:43:27 437.568
FO-29 19 Oct 22:36:01 22:42:41 50° 99° (E) 22:49:59 435.910
EO-88 19 Oct 22:42:01 22:45:14 30° 71° (ENE) 22:48:27 145.990 - 145.960
Max Valier Satellite 19 Oct 22:48:58 22:52:36 52° 74° (ENE) 22:56:14 145.860
Oscar 11 19 Oct 22:50:37 22:54:07 24° 266° (W) 22:57:39 .
BEESAT 2 19 Oct 22:54:40 22:58:28 37° 50° (NE) 23:02:12 435.950
BEESAT 3 19 Oct 23:14:03 23:17:47 41° 243° (WSW) 23:21:28 437.485
DELFI C3 19 Oct 23:16:15 23:20:02 50° 260° (W) 23:23:51 145.870
UNISAT 6 19 Oct 23:22:25 23:26:29 30° 95° (E) 23:30:27 437.425
YUBILEINY 19 Oct 23:34:14 23:42:05 38° 275° (W) 23:49:55 435.215
LO-87 19 Oct 23:35:40 23:38:06 17° 67° (ENE) 23:40:33 145.935 - 145.965
TIGRISAT 19 Oct 23:37:20 23:41:40 39° 97° (E) 23:45:53 435.000
AO-85 19 Oct 23:41:17 23:45:50 78° 56° (NE) 23:50:44 145.980
O/OREOS (USA 219) 20 Oct 00:15:54 00:17:43 12° 311° (NW) 00:19:33 437.305
EO-88 20 Oct 00:16:26 00:18:56 17° 267° (W) 00:21:26 145.990 - 145.960
FO-29 20 Oct 00:21:30 00:27:30 35° 294° (WNW) 00:34:04 435.910
Max Valier Satellite 20 Oct 00:25:46 00:26:43 11° 270° (W) 00:27:40 145.860
BEESAT 2 20 Oct 00:32:53 00:35:58 21° 248° (WSW) 00:39:00 435.950
VELOX 1 20 Oct 00:38:15 00:40:20 13° 61° (ENE) 00:42:24 145.980
ESTCUBE 1 20 Oct 00:41:47 00:46:16 77° 75° (ENE) 00:50:46 437.505/2401.250
AIST 2D 20 Oct 00:43:01 00:45:43 21° 94° (E) 00:48:25 435.315
PRISM 20 Oct 00:45:23 00:49:31 82° 285° (WNW) 00:53:39 437.425
QB50P2 20 Oct 00:56:53 00:59:09 14° 91° (E) 01:01:24 145.880/145.840
UNISAT 6 20 Oct 00:59:09 01:03:06 28° 293° (WNW) 01:06:58 437.425
NANOSAT C BR1 20 Oct 01:01:29 01:03:17 12° 90° (E) 01:05:06 145.865
LO-87 20 Oct 01:08:05 01:11:16 30° 263° (W) 01:14:30 145.935 - 145.965
RS-15 20 Oct 01:08:41 01:19:08 35° 105° (ESE) 01:29:35 29.354- 29.394
DUCHIFAT 1 20 Oct 01:12:18 01:14:38 14° 91° (E) 01:16:58 145.980
TIGRISAT 20 Oct 01:14:31 01:18:05 22° 295° (WNW) 01:21:35 435.000
AO-85 20 Oct 01:23:33 01:25:46 13° 251° (WSW) 01:28:03 145.980
SPROUT 20 Oct 01:33:51 01:38:06 69° 74° (ENE) 01:42:22 437.525
DX 1 20 Oct 01:46:29 01:49:21 18° 64° (ENE) 01:52:13 434.975-435.025
50 SAT 20 Oct 02:03:50 02:06:30 24° 70° (ENE) 02:09:12 437.505
EO-79 20 Oct 02:06:16 02:10:33 75° 102° (ESE) 02:14:46 145.935-145.965
POLYITAN 1 20 Oct 02:10:44 02:15:03 84° 105° (ESE) 02:19:16 437.675
VELOX 1 20 Oct 02:11:53 02:16:13 66° 258° (WSW) 02:20:36 145.980
UKube-1 20 Oct 02:11:59 02:15:10 21° 65° (ENE) 02:18:21 .
AIST 2D 20 Oct 02:16:05 02:18:49 22° 291° (WNW) 02:21:33 435.315
ESTCUBE 1 20 Oct 02:23:02 02:23:36 10° 272° (W) 02:24:10 437.505/2401.250
QB50P2 20 Oct 02:31:05 02:35:14 52° 287° (WNW) 02:39:21 145.880/145.840
NANOSAT C BR1 20 Oct 02:35:10 02:39:22 58° 286° (WNW) 02:43:30 145.865
Oscar 19 20 Oct 02:35:53 02:39:13 17° 91° (E) 02:42:31 437.125/150
DUCHIFAT 1 20 Oct 02:46:27 02:50:35 50° 288° (WNW) 02:54:38 145.980
BUGSAT 1 20 Oct 02:57:26 03:01:36 54° 100° (E) 03:05:42 437.445
Gurwin Techsat 1B 20 Oct 03:00:08 03:04:07 21° 93° (E) 03:08:03 435.225
ITUPSAT 1 20 Oct 03:01:12 03:02:05 10° 57° (ENE) 03:02:57 437.325
SPROUT 20 Oct 03:13:27 03:14:26 11° 271° (W) 03:15:25 437.525
BEESAT 20 Oct 03:15:18 03:17:57 15° 60° (ENE) 03:20:36 436.000
RS-15 20 Oct 03:18:20 03:30:40 75° 307° (NW) 03:43:01 29.354- 29.394
DX 1 20 Oct 03:21:01 03:25:10 46° 260° (W) 03:29:21 434.975-435.025
50 SAT 20 Oct 03:36:35 03:38:48 17° 266° (W) 03:41:02 437.505
EO-79 20 Oct 03:44:24 03:45:40 11° 299° (WNW) 03:46:56 145.935-145.965
UKube-1 20 Oct 03:46:57 03:50:56 37° 262° (W) 03:54:56 .
POLYITAN 1 20 Oct 03:49:51 03:50:07 10° 300° (WNW) 03:50:23 437.675
M-CUBED/EXP-1 PRIME 20 Oct 03:58:00 04:01:32 74° 108° (ESE) 04:05:18 437.505
MOZHAYETS 4 20 Oct 04:12:32 04:17:03 54° 73° (ENE) 04:21:35
Oscar 19 20 Oct 04:13:52 04:18:55 59° 288° (WNW) 04:23:55 437.125/150
CUBESAT XI-V 20 Oct 04:23:34 04:26:29 17° 63° (ENE) 04:29:22 437.345
BUGSAT 1 20 Oct 04:34:08 04:36:29 15° 297° (WNW) 04:38:48 437.445
ITUPSAT 1 20 Oct 04:34:16 04:39:05 82° 75° (ENE) 04:43:55 437.325
Gurwin Techsat 1B 20 Oct 04:39:10 04:44:19 51° 290° (WNW) 04:49:28 435.225
ITAMSAT 1 20 Oct 04:45:49 04:49:23 18° 92° (E) 04:52:56 435.822/435.867
BEESAT 20 Oct 04:50:23 04:55:08 69° 258° (WSW) 04:59:56 436.000
NO-84 20 Oct 04:55:35 04:59:50 61° 135° (SE) 05:04:02 435.350 FM
AO-7 20 Oct 05:21:21 05:29:24 51° 102° (ESE) 05:37:26 .
RS-15 20 Oct 05:35:05 05:45:41 32° 335° (NNW) 05:56:08 29.354- 29.394
KKS-1 20 Oct 05:45:25 05:49:22 33° 69° (ENE) 05:53:22 437.445
MOZHAYETS 4 20 Oct 05:51:41 05:54:31 16° 269° (W) 05:57:21
DOVE 4 20 Oct 05:51:58 05:52:59 11° 88° (E) 05:54:01 437.250
CUBESAT XI-V 20 Oct 05:58:51 06:03:24 55° 260° (W) 06:07:56 437.345
ITUPSAT 1 20 Oct 06:16:15 06:17:29 11° 271° (W) 06:18:42 437.325
STARS 20 Oct 06:20:12 06:24:05 31° 68° (ENE) 06:28:00 437.465
ITAMSAT 1 20 Oct 06:24:04 06:29:12 58° 289° (WNW) 06:34:19 435.822/435.867
NO-84 20 Oct 06:33:45 06:37:31 29° 333° (NNW) 06:41:11 435.350 FM
O/OREOS (USA 219) 20 Oct 07:03:46 07:07:23 22° 55° (NE) 07:10:59 437.305
AO-7 20 Oct 07:14:28 07:21:56 39° 301° (WNW) 07:29:25 .
KKS-1 20 Oct 07:22:23 07:25:57 24° 265° (W) 07:29:34 437.445
XW-2F 20 Oct 07:22:34 07:24:50 15° 92° (E) 07:27:04 145.980 - 146.000
KAITUO 1B 20 Oct 07:22:41 07:24:02 12° 91° (E) 07:25:22 145.475/437.950
LilacSat-2 20 Oct 07:25:57 07:28:45 20° 94° (E) 07:31:32 437.200
DOVE 4 20 Oct 07:26:14 07:31:13 89° 111° (ESE) 07:36:25 437.250
XW-2D 20 Oct 07:33:48 07:36:51 23° 95° (E) 07:39:52 145.860 - 145.880
NUDT-PHONESAT 20 Oct 07:37:00 07:39:26 17° 93° (E) 07:41:51 437.300
XW-2B 20 Oct 07:46:58 07:50:22 31° 97° (E) 07:53:43 145.730 - 145.750
HO-68 20 Oct 07:50:11 07:54:12 15° 88° (E) 07:58:12 435.675
RS-15 20 Oct 07:53:42 08:03:25 26° 11° (N) 08:12:48 29.354- 29.394
STARS 20 Oct 07:56:50 08:00:25 25° 265° (W) 08:04:03 437.465
XW-2C 20 Oct 08:09:56 08:13:40 64° 102° (ESE) 08:17:22 145.795 - 145.815
STRAND 1 20 Oct 08:11:28 08:16:19 44° 70° (ENE) 08:21:13 437.568
NO-84 20 Oct 08:13:37 08:16:00 15° 353° (N) 08:18:19 435.350 FM
PCSat 20 Oct 08:25:55 08:26:44 10° 101° (E) 08:27:33 145.827
CUTE-I 20 Oct 08:28:25 08:33:48 71° 102° (ESE) 08:39:09 437.470
SO-50 20 Oct 08:34:13 08:38:41 74° 121° (ESE) 08:43:10 436.795
O/OREOS (USA 219) 20 Oct 08:42:38 08:46:58 42° 254° (WSW) 08:51:16 437.305
UWE-3 20 Oct 08:45:36 08:47:05 11° 88° (E) 08:48:33 435.000/436.395/437.385
CUTE 1.7 + AOD 2 20 Oct 08:45:54 08:49:43 33° 96° (E) 08:53:33 437.475
FO-29 20 Oct 08:51:56 08:55:31 19° 59° (ENE) 08:59:16 435.910
SEEDS 20 Oct 08:54:21 08:57:51 26° 95° (E) 09:01:20 437.485
KAITUO 1B 20 Oct 08:54:43 08:58:16 46° 287° (WNW) 09:01:47 145.475/437.950
XW-2F 20 Oct 08:55:39 08:59:04 35° 288° (WNW) 09:02:28 145.980 - 146.000
LilacSat-2 20 Oct 08:59:47 09:03:02 28° 290° (WNW) 09:06:17 437.200
DOVE 4 20 Oct 09:06:10 09:08:13 13° 299° (WNW) 09:10:18 437.250
XW-2D 20 Oct 09:07:55 09:10:56 24° 291° (WNW) 09:13:58 145.860 - 145.880
NUDT-PHONESAT 20 Oct 09:10:06 09:13:22 31° 289° (WNW) 09:16:36 437.300
XW-2A 20 Oct 09:18:52 09:21:40 24° 96° (E) 09:24:26 145.665 - 145.685
AAUSAT CUBESAT 2 20 Oct 09:20:08 09:23:21 22° 94° (E) 09:26:34 437.432
XW-2B 20 Oct 09:21:44 09:24:18 18° 293° (WNW) 09:26:52 145.730 - 145.750
HO-68 20 Oct 09:35:37 09:42:52 87° 106° (ESE) 09:50:05 435.675
AO-73 20 Oct 09:37:23 09:40:33 19° 92° (E) 09:43:38 145.935
CUBEBUG 2 20 Oct 09:40:14 09:44:56 79° 102° (ESE) 09:49:27 437.445
STRAND 1 20 Oct 09:51:40 09:55:41 23° 267° (W) 09:59:44 437.568
NO-84 20 Oct 09:51:58 09:54:43 17° 15° (NNE) 09:57:20 435.350 FM
ZACube-1 20 Oct 09:58:27 10:02:32 37° 97° (E) 10:06:29 437.345
PCSat 20 Oct 10:03:47 10:09:11 80° 118° (ESE) 10:14:38 145.827
RS-15 20 Oct 10:08:02 10:19:43 51° 43° (NE) 10:30:44 29.354- 29.394
CUTE-I 20 Oct 10:09:52 10:13:15 17° 300° (WNW) 10:16:38 437.470
SO-50 20 Oct 10:16:36 10:19:38 18° 321° (NW) 10:22:42 436.795
UWE-3 20 Oct 10:19:32 10:24:03 69° 285° (WNW) 10:28:24 435.000/436.395/437.385
UNISAT 6 20 Oct 10:21:32 10:25:32 29° 68° (ENE) 10:29:36 437.425
CUTE 1.7 + AOD 2 20 Oct 10:22:10 10:25:21 21° 293° (WNW) 10:28:32 437.475
SEEDS 20 Oct 10:29:58 10:33:29 27° 291° (WNW) 10:36:59 437.485
FO-29 20 Oct 10:34:54 10:40:01 60° 259° (W) 10:45:34 435.910
Oscar 11 20 Oct 10:35:56 10:40:11 58° 100° (E) 10:44:24 .
TIGRISAT 20 Oct 10:36:09 10:40:25 37° 70° (ENE) 10:44:44 435.000
YUBILEINY 20 Oct 10:38:39 10:47:01 55° 90° (E) 10:55:25 435.215
ISS 20 Oct 10:47:20 10:49:10 14° 132° (SE) 10:51:01 437.550
XW-2A 20 Oct 10:51:53 10:54:12 18° 292° (WNW) 10:56:30 145.665 - 145.685
DELFI C3 20 Oct 10:52:51 10:55:37 18° 93° (E) 10:58:24 145.870
AAUSAT CUBESAT 2 20 Oct 10:55:11 10:58:50 31° 290° (WNW) 11:02:28 437.432
AO-73 20 Oct 11:12:52 11:16:55 38° 289° (WNW) 11:20:52 145.935
CUBEBUG 2 20 Oct 11:18:59 11:20:49 12° 300° (WNW) 11:22:38 437.445
HO-68 20 Oct 11:24:44 11:29:42 20° 306° (NW) 11:34:39 435.675
NO-84 20 Oct 11:29:02 11:32:50 56° 35° (NE) 11:36:20 435.350 FM
PRISM 20 Oct 11:34:48 11:38:50 76° 74° (ENE) 11:42:54 437.425
ZACube-1 20 Oct 11:35:15 11:38:34 21° 294° (WNW) 11:41:47 437.345
EO-88 20 Oct 11:42:58 11:46:18 34° 97° (E) 11:49:37 145.990 - 145.960
PCSat 20 Oct 11:49:22 11:53:14 19° 318° (NW) 11:57:08 145.827
nSIGHT-1 20 Oct 11:50:15 11:53:25 68° 143° (SE) 11:56:36 .
QB50P2 20 Oct 11:50:46 11:52:39 13° 62° (ENE) 11:54:33 145.880/145.840
Max Valier Satellite 20 Oct 11:51:36 11:55:16 65° 101° (E) 11:58:53 145.860
NANOSAT C BR1 20 Oct 11:55:03 11:56:21 11° 61° (ENE) 11:57:40 145.865
UNISAT 6 20 Oct 11:58:05 12:02:09 30° 265° (W) 12:06:17 437.425
DUCHIFAT 1 20 Oct 12:05:21 12:07:15 13° 62° (ENE) 12:09:09 145.980
TIGRISAT 20 Oct 12:13:28 12:17:10 23° 267° (W) 12:20:56 435.000
Oscar 11 20 Oct 12:13:34 12:15:50 14° 297° (WNW) 12:18:06 .
RS-15 20 Oct 12:20:59 12:32:21 56° 248° (WSW) 12:43:09 29.354- 29.394
ISS 20 Oct 12:22:02 12:25:16 71° 328° (NNW) 12:28:32 437.550
DELFI C3 20 Oct 12:26:52 12:30:28 34° 289° (WNW) 12:34:03 145.870
LO-87 20 Oct 12:34:19 12:36:56 19° 94° (E) 12:39:31 145.935 - 145.965
ESTCUBE 1 20 Oct 12:34:45 12:37:22 15° 91° (E) 12:39:59 437.505/2401.250
YUBILEINY 20 Oct 12:36:29 12:44:09 34° 291° (WNW) 12:51:55 435.215
AIST 2D 20 Oct 12:49:47 12:53:15 57° 260° (W) 12:56:43 435.315
EO-79 20 Oct 12:58:47 13:02:58 59° 74° (ENE) 13:07:11 145.935-145.965
POLYITAN 1 20 Oct 13:03:21 13:07:36 67° 74° (ENE) 13:11:51 437.675
BEESAT 3 20 Oct 13:04:03 13:07:19 24° 114° (ESE) 13:10:37 437.485
NO-84 20 Oct 13:07:21 13:09:48 17° 235° (SW) 13:12:07 435.350 FM
EO-88 20 Oct 13:17:26 13:19:40 16° 294° (WNW) 13:21:53 145.990 - 145.960
SPROUT 20 Oct 13:21:06 13:22:17 11° 89° (E) 13:23:27 437.525
QB50P2 20 Oct 13:23:38 13:27:53 66° 259° (W) 13:32:09 145.880/145.840
NANOSAT C BR1 20 Oct 13:27:11 13:31:26 75° 258° (WSW) 13:35:43 145.865
nSIGHT-1 20 Oct 13:27:16 13:29:57 24° 342° (NNW) 13:32:38 .
DUCHIFAT 1 20 Oct 13:38:10 13:42:22 64° 259° (WSW) 13:46:37 145.980
BUGSAT 1 20 Oct 13:47:21 13:51:16 40° 71° (ENE) 13:55:15 437.445
Oscar 19 20 Oct 13:53:01 13:57:22 28° 66° (ENE) 14:01:44 437.125/150
AO-85 20 Oct 13:58:10 14:00:45 17° 111° (ESE) 14:03:22 145.980
ISS 20 Oct 13:59:40 14:02:11 20° 347° (NNW) 14:04:43 437.550
VELOX 1 20 Oct 14:01:34 14:05:00 22° 94° (E) 14:08:25 145.980
LO-87 20 Oct 14:07:13 14:10:21 28° 290° (WNW) 14:13:28 145.935 - 145.965
ESTCUBE 1 20 Oct 14:10:07 14:14:29 52° 287° (WNW) 14:18:49 437.505/2401.250
Gurwin Techsat 1B 20 Oct 14:21:36 14:26:25 36° 67° (ENE) 14:31:14 435.225
BEESAT 2 20 Oct 14:23:14 14:27:06 51° 119° (ESE) 14:31:04 435.950
AO-7 20 Oct 14:32:30 14:37:39 18° 47° (NE) 14:42:47 .
EO-79 20 Oct 14:37:16 14:39:05 12° 270° (W) 14:40:54 145.935-145.965
BEESAT 3 20 Oct 14:41:05 14:44:44 33° 311° (NW) 14:48:25 437.485
POLYITAN 1 20 Oct 14:42:33 14:43:48 11° 271° (W) 14:45:03 437.675
M-CUBED/EXP-1 PRIME 20 Oct 14:44:48 14:48:11 73° 252° (WSW) 14:51:28 437.505
50 SAT 20 Oct 14:54:04 14:56:32 19° 95° (E) 14:58:58 437.505
SPROUT 20 Oct 14:54:19 14:58:36 67° 286° (WNW) 15:02:51 437.525
nSIGHT-1 20 Oct 15:04:55 15:07:02 16° 2° (N) 15:09:09 .
DX 1 20 Oct 15:08:27 15:12:11 27° 96° (E) 15:15:55 434.975-435.025
BUGSAT 1 20 Oct 15:23:58 15:26:47 18° 267° (W) 15:29:39 437.445
SO-50 20 Oct 15:25:30 15:28:01 14° 36° (NE) 15:30:33 436.795
Oscar 19 20 Oct 15:31:46 15:36:32 37° 263° (W) 15:41:19 437.125/150
UKube-1 20 Oct 15:32:54 15:36:46 31° 97° (E) 15:40:37 .
AO-85 20 Oct 15:37:06 15:40:48 41° 310° (NW) 15:44:36 145.980
ISS 20 Oct 15:37:12 15:39:31 18° 7° (N) 15:41:50 437.550
VELOX 1 20 Oct 15:37:27 15:41:31 36° 290° (WNW) 15:45:35 145.980
Gurwin Techsat 1B 20 Oct 16:01:45 16:06:22 30° 265° (W) 16:11:01 435.225
BEESAT 2 20 Oct 16:02:12 16:05:08 19° 317° (NW) 16:08:05 435.950
ITAMSAT 1 20 Oct 16:04:06 16:08:37 31° 66° (ENE) 16:13:09 435.822/435.867
MOZHAYETS 4 20 Oct 16:09:01 16:10:34 11° 89° (E) 16:12:06
AO-7 20 Oct 16:20:48 16:29:02 73° 68° (ENE) 16:37:18 .
50 SAT 20 Oct 16:26:10 16:28:47 22° 291° (WNW) 16:31:23 437.505
ITUPSAT 1 20 Oct 16:34:55 16:38:22 19° 93° (E) 16:41:47 437.325
nSIGHT-1 20 Oct 16:41:11 16:44:03 29° 22° (NNE) 16:46:55 .
DX 1 20 Oct 16:44:34 16:48:19 28° 292° (WNW) 16:52:03 434.975-435.025
BEESAT 20 Oct 16:50:03 16:54:10 28° 96° (E) 16:58:14 436.000
SO-50 20 Oct 17:04:36 17:09:13 79° 55° (NE) 17:13:54 436.795
PCSat 20 Oct 17:08:57 17:12:03 15° 38° (NE) 17:15:07 145.827
UKube-1 20 Oct 17:09:08 17:12:39 24° 293° (WNW) 17:16:08 .
ISS 20 Oct 17:13:28 17:16:37 43° 27° (NNE) 17:19:45 437.550
ITAMSAT 1 20 Oct 17:43:17 17:47:59 34° 263° (W) 17:52:43 435.822/435.867
MOZHAYETS 4 20 Oct 17:43:38 17:48:13 71° 285° (WNW) 17:52:44
CUBESAT XI-V 20 Oct 17:54:37 17:58:47 33° 96° (E) 18:02:56 437.345
LilacSat-2 20 Oct 18:09:46 18:11:19 12° 64° (ENE) 18:12:52 437.200
ITUPSAT 1 20 Oct 18:11:49 18:16:24 46° 290° (WNW) 18:20:58 437.325
CUTE-I 20 Oct 18:13:25 18:16:51 18° 60° (ENE) 18:20:17 437.470
AO-7 20 Oct 18:16:00 18:22:29 25° 267° (W) 18:29:00 .
XW-2D 20 Oct 18:16:37 18:18:36 14° 65° (ENE) 18:20:36 145.860 - 145.880
nSIGHT-1 20 Oct 18:17:21 18:20:25 44° 220° (SW) 18:23:29 .
HO-68 20 Oct 18:21:23 18:25:01 15° 50° (NE) 18:28:39 435.675
BEESAT 20 Oct 18:27:40 18:31:55 32° 292° (WNW) 18:36:08 436.000
XW-2B 20 Oct 18:29:19 18:31:58 18° 67° (ENE) 18:34:37 145.730 - 145.750
DOVE 4 20 Oct 18:32:39 18:36:49 86° 255° (WSW) 18:41:12 437.250
SO-50 20 Oct 18:47:09 18:49:04 12° 252° (WSW) 18:50:59 436.795
ISS 20 Oct 18:50:11 18:52:58 26° 224° (SW) 18:55:44 437.550
PCSat 20 Oct 18:50:58 18:56:25 73° 58° (ENE) 19:01:48 145.827
XW-2C 20 Oct 18:51:38 18:55:04 33° 71° (ENE) 18:58:31 145.795 - 145.815
KKS-1 20 Oct 19:11:18 19:15:45 60° 101° (E) 19:20:10 437.445
CUBESAT XI-V 20 Oct 19:32:13 19:36:00 26° 293° (WNW) 19:39:46 437.345
KAITUO 1B 20 Oct 19:34:31 19:38:15 83° 79° (E) 19:41:59 145.475/437.950
XW-2F 20 Oct 19:36:13 19:40:00 72° 259° (WSW) 19:43:46 145.980 - 146.000
CUTE 1.7 + AOD 2 20 Oct 19:39:12 19:42:44 27° 69° (ENE) 19:46:17 437.475
LilacSat-2 20 Oct 19:41:23 19:45:08 53° 260° (W) 19:48:53 437.200
UWE-3 20 Oct 19:43:16 19:45:04 12° 60° (ENE) 19:46:53 435.000/436.395/437.385
STARS 20 Oct 19:44:15 19:48:37 54° 101° (E) 19:52:57 437.465
SEEDS 20 Oct 19:46:57 19:50:00 20° 67° (ENE) 19:53:04 437.485
XW-2D 20 Oct 19:48:45 19:52:24 44° 261° (W) 19:56:04 145.860 - 145.880
NUDT-PHONESAT 20 Oct 19:48:51 19:52:32 67° 258° (WSW) 19:56:14 437.300
CUTE-I 20 Oct 19:51:03 19:56:19 68° 257° (WSW) 20:01:40 437.470
XW-2A 20 Oct 19:52:34 19:53:18 11° 64° (ENE) 19:54:01 145.665 - 145.685
XW-2B 20 Oct 20:02:29 20:05:55 32° 263° (W) 20:09:21 145.730 - 145.750
HO-68 20 Oct 20:04:22 20:11:28 69° 70° (ENE) 20:18:37 435.675
AAUSAT CUBESAT 2 20 Oct 20:11:25 20:14:01 16° 65° (ENE) 20:16:37 437.432
STRAND 1 20 Oct 20:22:42 20:25:23 14° 90° (E) 20:28:03 437.568
XW-2C 20 Oct 20:26:47 20:29:20 17° 267° (W) 20:31:54 145.795 - 145.815
AO-73 20 Oct 20:33:24 20:36:33 19° 65° (ENE) 20:39:42 145.935
PCSat 20 Oct 20:35:58 20:39:09 16° 256° (WSW) 20:42:18 145.827
CUBEBUG 2 20 Oct 20:38:05 20:42:44 70° 75° (ENE) 20:47:29 437.445
YUBILEINY 20 Oct 20:48:04 20:55:24 28° 66° (ENE) 21:02:42 435.215
KKS-1 20 Oct 20:49:15 20:51:48 15° 298° (WNW) 20:54:21 437.445
ZACube-1 20 Oct 20:54:20 20:58:26 33° 69° (ENE) 21:02:31 437.345
CUTE 1.7 + AOD 2 20 Oct 21:14:54 21:18:29 27° 265° (W) 21:22:05 437.475
UWE-3 20 Oct 21:16:10 21:20:49 82° 257° (WSW) 21:25:32 435.000/436.395/437.385
O/OREOS (USA 219) 20 Oct 21:17:19 21:20:39 20° 101° (E) 21:24:00 437.305
BEESAT 3 20 Oct 21:19:42 21:22:45 21° 44° (NE) 21:25:47 437.485
